�N����,����,�~����,�C��,���x,�C��,����,���ϕ���,�ő�u�ԕ���,�ő厞����,���˗�,�I�_���x,�n�����x,�ő啗���N��,DTYPE
"23/04/18","00:10",0.0,8.3,88.0,1015.9,288.0,2.2,2.7,259.3,0.00,6.5,14.1,"00:05:04",1
"23/04/18","00:20",0.0,8.1,88.3,1016.1,315.0,2.5,2.9,322.5,0.00,6.3,14.1,"00:13:44",1
"23/04/18","00:30",0.0,7.8,88.9,1015.6,326.5,2.7,3.2,320.8,0.00,6.1,14.1,"00:26:16",1
"23/04/18","00:40",0.0,7.7,89.4,1015.6,306.0,2.3,2.8,324.9,0.00,6.1,13.9,"00:31:04",1
"23/04/18","00:50",0.0,7.6,89.8,1015.4,303.0,2.5,3.3,320.7,0.00,6.1,14.0,"00:42:40",1
"23/04/18","01:00",0.0,7.7,90.1,1015.4,301.2,3.0,3.6,298.4,0.00,6.2,13.9,"00:58:24",1
"23/04/18","01:10",0.0,7.8,90.1,1015.6,312.3,3.0,4.3,328.2,0.00,6.3,14.0,"01:04:00",1
"23/04/18","01:20",0.0,7.8,90.2,1015.6,285.8,2.2,2.9,314.1,0.00,6.3,14.0,"01:11:52",1
"23/04/18","01:30",0.0,7.7,90.2,1015.6,285.9,2.6,3.2,298.2,0.00,6.2,13.9,"01:26:48",1
"23/04/18","01:40",0.0,7.7,90.2,1015.6,307.0,2.6,3.3,329.9,0.00,6.2,13.8,"01:36:32",1
"23/04/18","01:50",0.0,7.4,90.3,1015.4,305.6,2.3,3.5,323.2,0.00,6.0,13.6,"01:46:24",1
"23/04/18","02:00",0.0,7.3,90.5,1015.6,317.4,2.2,2.8,316.3,0.00,5.9,13.7,"01:55:28",1
"23/04/18","02:10",0.0,7.2,90.7,1015.4,310.1,2.2,2.5,308.1,0.00,5.8,13.7,"02:09:12",1
"23/04/18","02:20",0.0,7.1,91.0,1014.9,313.4,2.3,2.9,323.4,0.00,5.8,13.5,"02:18:00",1
"23/04/18","02:30",0.0,6.9,91.2,1015.2,306.0,1.8,2.7,313.1,0.00,5.6,13.6,"02:28:16",1
"23/04/18","02:40",0.0,6.7,91.5,1014.9,319.5,2.7,3.1,325.1,0.00,5.5,13.5,"02:35:04",1
"23/04/18","02:50",0.0,6.8,91.9,1015.4,310.4,2.3,2.9,327.4,0.00,5.6,13.4,"02:43:36",1
"23/04/18","03:00",0.0,6.9,92.2,1015.2,288.6,2.5,3.2,303.0,0.00,5.8,13.4,"02:57:04",1
"23/04/18","03:10",0.0,6.9,92.4,1015.4,305.7,2.5,3.3,327.6,0.00,5.8,13.3,"03:05:20",1
"23/04/18","03:20",0.0,6.8,92.6,1015.2,296.0,2.5,3.1,309.2,0.00,5.7,13.3,"03:11:44",1
"23/04/18","03:30",0.0,6.8,92.7,1014.9,286.5,2.0,2.4,269.3,0.00,5.7,13.3,"03:23:52",1
"23/04/18","03:40",0.0,6.8,92.9,1014.9,308.1,2.3,3.2,326.2,0.00,5.8,13.3,"03:37:44",1
"23/04/18","03:50",0.0,6.4,93.0,1014.9,320.2,2.7,3.6,320.8,0.00,5.4,13.1,"03:45:42",1
"23/04/18","04:00",0.0,6.4,93.3,1015.2,322.3,2.6,3.4,324.4,0.00,5.4,13.2,"03:56:00",1
"23/04/18","04:10",0.0,6.4,93.5,1015.4,297.8,2.1,2.8,302.7,0.00,5.5,13.1,"04:09:52",1
"23/04/18","04:20",0.0,6.6,93.7,1015.2,294.8,2.3,2.7,308.6,0.00,5.7,13.2,"04:19:36",1
"23/04/18","04:30",0.0,6.7,93.7,1014.9,314.3,2.8,3.7,313.2,0.00,5.8,13.2,"04:22:08",1
"23/04/18","04:40",0.0,6.4,93.7,1015.2,321.2,2.6,3.4,323.1,0.00,5.5,12.9,"04:35:00",1
"23/04/18","04:50",0.0,6.5,94.0,1014.9,297.4,2.6,3.6,309.5,0.00,5.6,13.1,"04:45:20",1
"23/04/18","05:00",0.0,6.7,94.0,1014.9,299.3,2.7,3.5,308.5,0.00,5.8,13.0,"04:57:44",1
"23/04/18","05:10",0.0,6.5,94.0,1015.2,299.8,1.6,2.7,317.9,0.00,5.6,13.0,"05:00:32",1
"23/04/18","05:20",0.0,6.4,94.2,1015.4,289.5,2.1,2.9,311.1,0.00,5.6,12.9,"05:18:32",1
"23/04/18","05:30",0.0,6.4,94.2,1014.9,324.4,2.5,3.2,317.3,0.00,5.6,12.8,"05:21:12",1
"23/04/18","05:40",0.0,6.5,94.4,1015.2,324.3,2.5,3.2,326.7,0.00,5.7,12.8,"05:36:24",1
"23/04/18","05:50",0.0,6.2,94.5,1014.9,310.7,2.2,3.2,333.5,0.00,5.4,12.9,"05:40:40",1
"23/04/18","06:00",0.0,6.2,94.6,1014.7,288.7,1.8,2.2,311.1,0.00,5.4,12.8,"05:56:52",1
"23/04/18","06:10",0.0,6.1,94.8,1014.9,299.8,2.0,2.4,312.7,0.00,5.4,12.8,"06:04:10",1
"23/04/18","06:20",0.0,6.2,94.9,1015.2,317.3,2.3,2.9,324.3,0.00,5.5,12.8,"06:18:22",1
"23/04/18","06:30",0.0,6.3,95.0,1014.9,299.3,1.3,2.4,313.1,0.00,5.6,12.7,"06:29:28",1
"23/04/18","06:40",0.0,6.6,95.1,1015.2,317.6,2.7,3.5,323.1,0.00,5.9,12.8,"06:35:28",1
"23/04/18","06:50",0.0,6.7,95.1,1014.9,291.1,1.8,2.6,311.4,0.00,6.0,12.4,"06:42:16",1
"23/04/18","07:00",0.0,6.9,95.2,1015.2,302.4,2.2,2.7,305.6,0.01,6.2,12.6,"06:55:44",1
"23/04/18","07:10",0.0,7.4,95.3,1014.9,324.4,1.7,2.5,310.8,0.02,6.7,12.7,"07:01:28",1
"23/04/18","07:20",0.0,7.9,95.3,1015.4,309.6,1.7,2.2,320.3,0.04,7.2,12.6,"07:12:56",1
"23/04/18","07:30",0.0,8.1,95.2,1015.4,300.2,2.0,3.5,319.2,0.06,7.4,12.6,"07:24:40",1
"23/04/18","07:40",0.0,8.8,94.9,1014.9,295.9,1.5,2.1,262.8,0.08,8.1,12.5,"07:31:04",1
"23/04/18","07:50",0.0,10.0,94.6,1015.4,301.4,0.7,1.3,333.4,0.09,9.2,12.5,"07:41:20",1
"23/04/18","08:00",0.0,10.9,92.9,1015.9,299.8,0.8,1.4,327.7,0.12,9.8,12.5,"07:52:40",1
"23/04/18","08:10",0.0,10.6,92.1,1016.1,260.5,1.1,1.9,242.3,0.13,9.4,12.5,"08:00:40",1
"23/04/18","08:20",0.0,11.5,91.2,1016.6,286.6,0.8,1.8,256.0,0.17,10.2,12.5,"08:11:52",1
"23/04/18","08:30",0.0,11.8,87.3,1016.1,306.8,0.5,1.1,353.1,0.15,9.8,12.4,"08:21:44",1
"23/04/18","08:40",0.0,12.1,83.9,1016.4,239.3,0.6,1.1,247.7,0.18,9.5,12.7,"08:37:36",1
"23/04/18","08:50",0.0,12.3,79.9,1016.1,260.4,0.3,1.2,121.6,0.14,9.0,12.7,"08:49:44",1
"23/04/18","09:00",0.0,13.0,76.9,1015.4,168.2,0.6,1.3,189.1,0.25,9.1,12.6,"08:56:08",1
"23/04/18","09:10",0.0,13.8,73.8,1015.6,216.9,0.8,1.8,122.0,0.30,9.3,12.6,"09:02:32",1
"23/04/18","09:20",0.0,14.1,70.8,1015.9,316.4,1.2,2.7,323.6,0.29,8.9,12.9,"09:10:08",1
"23/04/18","09:30",0.0,14.6,68.2,1015.4,218.2,0.6,1.3,150.2,0.34,8.8,12.8,"09:20:48",1
"23/04/18","09:40",0.0,15.2,66.8,1014.9,345.0,0.8,2.0,334.2,0.31,9.1,12.8,"09:32:48",1
"23/04/18","09:50",0.0,15.5,63.6,1014.9,236.9,1.0,2.0,253.5,0.38,8.7,12.7,"09:49:44",1
"23/04/18","10:00",0.0,15.6,62.4,1014.5,249.1,1.2,2.4,120.8,0.39,8.5,12.9,"09:55:52",1
"23/04/18","10:10",0.0,15.9,60.8,1014.5,84.4,1.1,2.7,108.8,0.43,8.4,13.0,"10:04:48",1
"23/04/18","10:20",0.0,16.1,57.5,1014.5,151.7,1.1,3.4,118.3,0.41,7.8,12.9,"10:18:00",1
"23/04/18","10:30",0.0,16.4,58.1,1014.2,201.6,1.1,2.4,105.5,0.40,8.2,13.1,"10:22:40",1
"23/04/18","10:40",0.0,16.5,56.1,1014.0,319.5,1.3,2.7,343.8,0.32,7.8,13.2,"10:33:20",1
"23/04/18","10:50",0.0,16.7,57.5,1013.8,171.6,1.2,3.1,125.1,0.31,8.3,13.2,"10:45:36",1
"23/04/18","11:00",0.0,17.3,56.2,1013.5,225.8,0.7,2.1,71.1,0.39,8.5,13.2,"10:50:02",1
"23/04/18","11:10",0.0,17.6,55.4,1012.8,129.0,1.3,3.5,121.0,0.45,8.6,13.3,"11:04:40",1
"23/04/18","11:20",0.0,17.9,55.1,1013.0,209.0,1.7,2.9,204.3,0.40,8.8,13.4,"11:13:12",1
"23/04/18","11:30",0.0,18.0,56.2,1012.8,127.9,1.3,3.3,124.2,0.37,9.2,13.5,"11:21:04",1
"23/04/18","11:40",0.0,18.5,55.5,1012.8,177.1,2.0,4.1,129.8,0.50,9.5,13.7,"11:38:40",1
"23/04/18","11:50",0.0,19.0,56.4,1012.6,147.1,2.5,4.4,139.8,0.48,10.2,13.8,"11:49:36",1
"23/04/18","12:00",0.0,18.9,55.2,1012.1,167.1,3.1,5.6,132.6,0.42,9.8,13.9,"11:55:52",1
"23/04/18","12:10",0.0,19.5,54.5,1011.6,156.8,2.1,4.1,128.6,0.43,10.1,14.0,"12:04:24",1
"23/04/18","12:20",0.0,19.9,51.9,1011.6,205.3,2.6,5.5,155.9,0.50,9.8,14.1,"12:18:08",1
"23/04/18","12:30",0.0,19.7,52.1,1011.2,226.0,3.1,5.9,291.1,0.39,9.6,14.0,"12:20:08",1
"23/04/18","12:40",0.0,19.5,51.3,1011.2,237.6,3.9,7.2,235.6,0.39,9.2,14.2,"12:38:00",1
"23/04/18","12:50",0.0,19.6,53.9,1010.9,225.9,3.1,7.1,219.3,0.38,10.1,14.4,"12:45:28",1
"23/04/18","13:00",0.0,19.8,51.6,1010.9,212.1,2.0,4.7,284.3,0.39,9.6,14.4,"12:57:12",1
"23/04/18","13:10",0.0,20.9,52.2,1010.7,238.8,2.3,7.3,241.3,0.57,10.8,14.6,"13:07:04",1
"23/04/18","13:20",0.0,20.7,50.6,1010.9,222.3,3.9,7.7,178.7,0.59,10.1,14.6,"13:18:16",1
"23/04/18","13:30",0.0,20.5,50.3,1010.7,199.1,4.0,8.6,231.1,0.43,9.9,14.7,"13:21:20",1
"23/04/18","13:40",0.0,20.3,51.2,1010.7,207.7,3.1,5.8,201.9,0.23,9.9,14.9,"13:32:08",1
"23/04/18","13:50",0.0,19.9,50.9,1010.4,228.2,3.1,6.0,223.5,0.21,9.5,14.8,"13:41:36",1
"23/04/18","14:00",0.0,19.6,52.0,1010.4,240.6,3.6,7.7,210.6,0.15,9.5,14.8,"13:53:44",1
"23/04/18","14:10",0.0,19.9,53.4,1010.2,257.4,2.3,6.7,206.6,0.20,10.2,14.6,"14:02:32",1
"23/04/18","14:20",0.0,19.8,55.0,1010.4,274.2,2.5,4.9,246.7,0.17,10.5,15.0,"14:12:08",1
"23/04/18","14:30",0.0,19.8,55.1,1010.0,270.4,3.0,5.9,238.6,0.17,10.6,14.9,"14:29:04",1
"23/04/18","14:40",0.0,19.8,55.7,1010.0,263.7,3.0,5.9,238.0,0.18,10.7,15.0,"14:35:44",1
"23/04/18","14:50",0.0,20.0,55.6,1009.7,265.3,3.4,5.4,229.2,0.24,10.9,15.3,"14:44:08",1
"23/04/18","15:00",0.0,20.5,55.4,1009.5,281.9,2.8,4.4,253.7,0.32,11.3,15.1,"14:50:56",1
"23/04/18","15:10",0.0,20.3,54.9,1009.7,280.4,3.6,6.2,246.8,0.29,11.0,15.2,"15:06:12",1
"23/04/18","15:20",0.0,20.3,54.9,1009.7,275.9,3.1,5.9,254.5,0.23,11.0,14.9,"15:13:52",1
"23/04/18","15:30",0.0,20.3,55.3,1009.5,259.8,3.2,7.2,240.9,0.21,11.1,15.1,"15:20:48",1
"23/04/18","15:40",0.0,20.2,55.6,1009.3,274.0,3.0,5.5,245.0,0.16,11.1,15.2,"15:31:12",1
"23/04/18","15:50",0.0,20.1,55.3,1009.7,269.3,3.4,5.9,233.2,0.11,10.9,15.4,"15:47:28",1
"23/04/18","16:00",0.0,19.8,55.5,1009.5,244.2,4.0,8.7,202.6,0.08,10.7,15.4,"15:52:32",1
"23/04/18","16:10",0.0,19.9,54.9,1009.5,275.0,2.8,7.8,313.6,0.12,10.6,15.2,"16:01:20",1
"23/04/18","16:20",0.0,19.7,54.6,1009.7,294.2,2.7,7.1,332.9,0.09,10.3,15.3,"16:11:12",1
"23/04/18","16:30",0.0,19.5,54.7,1009.7,308.4,3.0,6.5,325.8,0.06,10.2,15.5,"16:20:02",1
"23/04/18","16:40",0.0,19.3,55.2,1010.2,321.1,3.6,7.0,342.0,0.06,10.1,15.5,"16:30:16",1
"23/04/18","16:50",0.0,19.2,54.9,1010.2,316.4,2.8,5.1,328.7,0.05,10.0,15.3,"16:44:56",1
"23/04/18","17:00",0.0,19.2,54.8,1009.7,292.5,2.5,4.8,321.9,0.04,9.9,15.3,"16:59:36",1
"23/04/18","17:10",0.0,19.1,55.2,1009.3,295.5,2.3,4.3,320.6,0.05,10.0,15.3,"17:01:12",1
"23/04/18","17:20",0.0,19.1,55.8,1009.3,290.0,2.0,3.7,325.3,0.03,10.1,15.5,"17:13:20",1
"23/04/18","17:30",0.0,18.9,56.6,1009.3,315.3,2.6,4.3,328.6,0.02,10.1,15.2,"17:24:16",1
"23/04/18","17:40",0.0,18.9,57.1,1008.8,312.8,3.0,6.3,347.1,0.02,10.3,15.3,"17:38:48",1
"23/04/18","17:50",0.0,18.8,57.7,1009.3,281.1,2.1,4.0,351.8,0.00,10.3,15.2,"17:48:56",1
"23/04/18","18:00",0.0,18.3,62.4,1010.2,303.6,2.8,5.7,326.2,0.00,11.0,15.2,"17:54:32",1
"23/04/18","18:10",0.0,17.8,66.6,1010.0,298.4,2.8,4.8,303.2,0.00,11.5,15.3,"18:07:20",1
"23/04/18","18:20",0.0,17.6,67.8,1010.0,312.2,3.5,5.4,346.8,0.00,11.6,15.4,"18:16:32",1
"23/04/18","18:30",0.0,17.6,68.5,1010.0,307.5,2.5,4.3,316.9,0.00,11.8,15.3,"18:20:08",1
"23/04/18","18:40",0.0,17.1,70.4,1009.7,306.2,2.8,5.5,330.2,0.00,11.7,15.5,"18:32:24",1
"23/04/18","18:50",0.2,16.8,72.6,1010.0,301.1,2.1,3.4,335.9,0.00,11.9,15.2,"18:45:28",1
"23/04/18","19:00",0.0,16.2,76.6,1010.4,292.8,2.2,4.3,314.1,0.00,12.1,15.3,"18:51:04",1
"23/04/18","19:10",0.0,15.8,80.0,1010.0,307.1,2.3,3.4,316.5,0.00,12.4,15.2,"19:08:52",1
"23/04/18","19:20",0.2,15.7,81.3,1009.3,333.2,2.6,4.4,330.9,0.00,12.5,15.1,"19:13:04",1
"23/04/18","19:30",0.0,15.7,82.5,1009.3,13.5,0.8,2.1,340.8,0.00,12.8,15.2,"19:20:08",1
"23/04/18","19:40",0.4,15.6,83.8,1009.7,2.9,1.3,2.8,319.4,0.00,12.9,15.2,"19:38:42",1
"23/04/18","19:50",0.0,15.2,85.6,1010.2,310.3,2.3,4.0,334.3,0.00,12.8,15.2,"19:41:28",1
"23/04/18","20:00",0.2,14.9,87.1,1009.3,308.0,2.0,3.6,340.0,0.00,12.8,15.1,"19:52:10",1
"23/04/18","20:10",0.0,14.7,88.3,1009.0,337.4,2.1,3.5,330.7,0.00,12.8,15.2,"20:06:24",1
"23/04/18","20:20",0.0,14.6,89.1,1009.0,322.7,2.2,4.4,326.7,0.00,12.9,15.2,"20:14:56",1
"23/04/18","20:30",0.0,14.7,89.3,1009.0,105.2,0.8,2.1,108.2,0.00,13.0,14.8,"20:26:32",1
"23/04/18","20:40",0.0,14.9,89.4,1009.3,307.0,2.0,2.8,308.4,0.00,13.2,15.2,"20:38:56",1
"23/04/18","20:50",0.0,14.7,89.7,1009.0,314.7,2.7,4.2,330.4,0.00,13.1,15.0,"20:46:26",1
"23/04/18","21:00",0.0,14.5,90.0,1009.3,331.5,1.8,4.4,323.4,0.00,12.9,15.1,"20:53:26",1
"23/04/18","21:10",0.0,14.6,90.3,1009.3,65.7,0.6,1.4,40.1,0.00,13.1,14.9,"21:01:28",1
"23/04/18","21:20",0.0,14.5,90.5,1010.0,270.0,0.7,1.4,322.1,0.00,13.0,15.0,"21:18:16",1
"23/04/18","21:30",0.0,14.6,90.8,1010.0,335.1,1.0,1.9,336.5,0.00,13.2,15.1,"21:29:14",1
"23/04/18","21:40",0.0,14.5,91.2,1009.7,280.6,1.3,3.2,315.4,0.00,13.1,15.1,"21:34:48",1
"23/04/18","21:50",0.0,14.3,91.4,1010.0,300.3,1.3,2.6,317.0,0.00,13.0,15.2,"21:47:48",1
"23/04/18","22:00",0.0,14.1,91.8,1009.7,333.2,1.2,2.5,306.7,0.00,12.8,14.8,"21:58:16",1
"23/04/18","22:10",0.0,13.9,92.2,1010.0,316.7,1.6,2.5,338.1,0.00,12.7,14.8,"22:01:44",1
"23/04/18","22:20",0.0,13.8,92.7,1009.5,297.0,1.3,2.7,312.5,0.00,12.7,14.8,"22:10:24",1
"23/04/18","22:30",0.0,13.7,92.9,1009.5,286.4,0.8,1.8,287.9,0.00,12.6,15.0,"22:24:24",1
"23/04/18","22:40",0.0,13.8,93.1,1009.5,306.9,1.1,1.9,313.8,0.00,12.7,15.0,"22:37:52",1
"23/04/18","22:50",0.0,13.7,93.5,1009.3,289.8,1.6,2.4,313.4,0.00,12.7,14.8,"22:47:44",1
"23/04/18","23:00",0.0,13.8,93.7,1010.0,316.9,1.7,2.4,318.3,0.00,12.8,14.9,"22:58:00",1
"23/04/18","23:10",0.0,13.8,93.9,1009.5,305.0,1.1,2.1,319.4,0.00,12.9,15.0,"23:01:20",1
"23/04/18","23:20",0.0,13.8,94.1,1009.3,315.7,1.1,2.2,331.4,0.00,12.9,14.7,"23:19:12",1
"23/04/18","23:30",0.0,13.7,94.3,1009.3,297.2,1.2,2.0,330.9,0.00,12.8,14.9,"23:25:04",1
"23/04/18","23:40",0.0,13.9,94.5,1009.5,306.0,2.1,4.0,340.7,0.00,13.1,14.7,"23:36:26",1
"23/04/18","23:50",0.0,13.9,94.7,1010.0,330.8,1.6,3.1,332.4,0.00,13.1,14.7,"23:45:52",1
"23/04/18","24:00",0.0,14.2,94.8,1009.7,231.8,1.1,2.4,210.3,0.00,13.4,14.7,"23:55:04",1
